TimeMST,TemperatureF,Dew PointF,Humidity,Sea Level PressureIn,VisibilityMPH,Wind Direction,Wind SpeedMPH,Gust SpeedMPH,PrecipitationIn,Events,Conditions,WindDirDegrees,DateUTC
12:00 AM,30.2,19.4,64,29.84,10.0,West,26.5,35.7,N/A,,Mostly Cloudy,260,2013-01-08 07:00:00
12:53 AM,28.0,18.0,66,29.82,10.0,West,23.0,32.2,N/A,,Clear,260,2013-01-08 07:53:00
1:53 AM,25.0,12.9,60,29.83,10.0,SW,28.8,-,N/A,,Clear,230,2013-01-08 08:53:00
2:53 AM,25.0,16.0,69,29.82,10.0,West,27.6,-,N/A,,Clear,260,2013-01-08 09:53:00
3:53 AM,25.0,18.0,75,29.84,8.0,WSW,28.8,36.8,N/A,,Clear,250,2013-01-08 10:53:00
5:53 AM,28.9,16.0,58,29.88,10.0,West,15.0,23.0,N/A,,Partly Cloudy,270,2013-01-08 12:53:00
6:53 AM,28.9,17.1,61,29.90,10.0,West,27.6,40.3,N/A,,Clear,270,2013-01-08 13:53:00
7:53 AM,26.1,18.0,71,29.94,10.0,Calm,Calm,-,N/A,,Mostly Cloudy,0,2013-01-08 14:53:00
8:53 AM,28.0,17.1,63,29.96,10.0,Variable,6.9,-,N/A,,Mostly Cloudy,0,2013-01-08 15:53:00
10:53 AM,30.0,19.0,64,29.97,-9999.0,Variable,3.5,-,N/A,,Clear,0,2013-01-08 17:53:00
11:53 AM,30.0,21.0,69,29.96,10.0,WSW,12.7,-,N/A,,Clear,250,2013-01-08 18:53:00
12:53 PM,30.9,21.0,67,29.97,10.0,SW,25.3,33.4,N/A,,Partly Cloudy,230,2013-01-08 19:53:00
1:53 PM,32.0,21.0,64,30.00,10.0,West,20.7,-,N/A,,Clear,280,2013-01-08 20:53:00
2:53 PM,30.9,19.9,64,30.07,10.0,SW,12.7,24.2,N/A,,Clear,230,2013-01-08 21:53:00
3:53 PM,28.9,18.0,64,30.11,10.0,SW,17.3,-,N/A,,Partly Cloudy,230,2013-01-08 22:53:00
4:53 PM,27.0,17.1,66,30.13,-9999.0,SW,18.4,-,N/A,,Clear,220,2013-01-08 23:53:00
5:53 PM,24.1,16.0,71,30.15,10.0,SW,19.6,-,N/A,,Clear,230,2013-01-09 00:53:00
6:53 PM,23.0,15.1,72,30.16,10.0,SW,18.4,-,N/A,,Clear,230,2013-01-09 01:53:00
7:53 PM,24.1,16.0,71,30.18,10.0,SW,15.0,-,N/A,,Clear,230,2013-01-09 02:53:00
8:53 PM,24.1,16.0,71,30.23,10.0,SW,19.6,28.8,N/A,,Clear,230,2013-01-09 03:53:00
9:53 PM,24.1,16.0,71,30.27,10.0,WSW,16.1,-,N/A,,Clear,240,2013-01-09 04:53:00
10:53 PM,27.0,18.0,69,30.26,10.0,WSW,27.6,35.7,N/A,,Clear,240,2013-01-09 05:53:00
11:53 PM,25.0,18.0,75,30.28,9.0,WSW,28.8,35.7,N/A,,Clear,240,2013-01-09 06:53:00